Flag for U.S.A. Weather past 2 weeks in Palm Springs, California, U.S.A.

Now
100 °F

Scattered clouds.


Feels Like: 95 °F
Forecast: 77 / 101 °F
Wind: 6 mph from East

Location: Palm Springs Regional Airport

Current Time: May 30, 2015 at 3:50:30 PM

Latest Report: May 30, 2015 at 2:53 PM


Visibility: 10 mi

Pressure: 29.84 "Hg

Humidity: 10%

Dew point: 33 °F

Location of Palm SpringsLocation

Historic Weather in Palm Springs — Graph

°F

Palm Springs temperature yesterday

Maximum temperature yesterday: 99 °F (at 3:53 PM)
Minimum temperature yesterday: 73 °F (at 5:53 AM)
Average temperature yesterday: 87 °F

Past Weeks' High & Low Weather Summary

 TemperatureHumidityPressure
High99 °F (May 28, 3:53 PM)86% (May 16, 1:53 AM)29.99 "Hg (May 16, 1:53 AM)
Low53 °F (May 16, 3:53 AM)8% (May 30, 1:53 PM)29.74 "Hg (May 21, 6:53 PM)
Average76 °F37%29.87 "Hg
* Reported May 15 1:53 PM — May 30 1:53 PM, Palm Springs, Weather by CustomWeather, © 2015

Note: Actual official high and low records may vary slightly from our data, if they occured in-between our weather recording intervals... More about our weather records

Advertising

Palm Springs weather history for previous 24 hours

 ConditionsComfort  
Time TempWeatherWind HumidityBarometerVisibility
1:53 PM
Sat, May 30
99 °FSunny.8 mph8%29.86 "Hg10 mi
12:53 PM96 °FScattered clouds.7 mph11%29.88 "Hg10 mi
11:53 AM94 °FScattered clouds.6 mph18%29.90 "Hg10 mi
10:53 AM91 °FScattered clouds.5 mph20%29.91 "Hg10 mi
9:53 AM87 °FSunny.7 mph25%29.92 "Hg10 mi
8:53 AM84 °FSunny.7 mph33%29.91 "Hg10 mi
7:53 AM80 °FSunny.6 mph35%29.90 "Hg10 mi
6:53 AM79 °FSunny.7 mph28%29.88 "Hg10 mi
5:53 AM80 °FClear.8 mph32%29.85 "Hg10 mi
4:53 AM78 °FClear.6 mph36%29.84 "Hg10 mi
3:53 AM79 °FClear.No wind35%29.83 "Hg10 mi
2:53 AM82 °FClear.7 mph32%29.83 "Hg10 mi
1:53 AM83 °FClear.8 mph31%29.83 "Hg10 mi
12:53 AM84 °FClear.8 mph30%29.84 "Hg10 mi
11:53 PM
Fri, May 29
86 °FClear.8 mph27%29.84 "Hg10 mi
10:53 PM89 °FClear.5 mph23%29.83 "Hg10 mi
9:53 PM90 °FClear.3 mph24%29.82 "Hg10 mi
8:53 PM92 °FClear.6 mph20%29.80 "Hg10 mi
7:53 PM95 °FSunny.6 mph17%29.79 "Hg10 mi
6:53 PM97 °FSunny.9 mph15%29.78 "Hg10 mi
5:53 PM99 °FScattered clouds.8 mph12%29.77 "Hg10 mi
4:53 PM99 °FSunny.8 mph12%29.78 "Hg10 mi
3:53 PM99 °FSunny.7 mph12%29.80 "Hg10 mi
Weather by CustomWeather, © 2015

See weather overviewHow to use our weather pages